User: anonymous   Login
Location: Unspecified
(0.0000°N, 0.0000°E)
Time: 06:58:09
(UTC+00:00)
Language:

ITAMSAT 1 - Orbit

View from above orbital plane
View from above orbital plane
View from above satellite
View from above satellite

Ground track
Ground track

The orbit data is extracted from the following two-line orbital elements,

1 22826U 93061D   18262.88217875 -.00000002  00000-0  17079-4 0  9995
2 22826  98.8670 240.7861 0009936  63.1718 297.0479 14.30371438303290
Epoch (UTC): 19 September 2018 21:10:20
Eccentricity: 0.0009936
inclination: 98.8670°
perigee height: 783 km
apogee height: 797 km
right ascension of ascending node: 240.7861°
argument of perigee: 63.1718°
revolutions per day: 14.30371438
mean anomaly at epoch: 297.0479°
orbit number at epoch: 30329

The dashed part of the orbit path shows where the satellite is in the earth's shadow,  

DLR